SCP
0 0 0 0 0 0 0 0 0 0 0 0 0 0 0 0 0 0 0 0 0 0 0 0 0 0 0 0 0 0 0 0 0 0 0 0 0 0 0 0 0 0 0 0 0 0 0 0 0
0 0 0 0 0 0 0 0 0 0 0 0 0 0 0 0 0 0 0 0 0 0 0 0 0 0 0 0 0 0 0 0 0 0 0 0 0 0 0 0 0 0 0 0 0 0 0 0 0
0 0 0 0 0 0 0 0 0 0 0 0 0 0 0 0 0 0 0 0 0 0 0 0 0 0 0 0 0 0 0 0 0 0 0 0 0 0 0 0 0 0 0 0 0 0 0 0 0
0 0 0 0 0 0 0 0 0 0 0 0 0 0 0 0 0 0 0 0 0 0 0 0 0 0 0 0 0 0 0 0 0 0 0 0 0 0 0 0 0 0 0 0 0 0 0 0 0
0 0 0 0 0 0 0 0 0 0 0 0 0 0 0 0 0 0 0 0 0 0 0 0 0 0 0 0 0 0 0 0 0 0 0 0 0 0 0 0 0 0 0 0 0 0 0 0 0
0 0 0 0 0 0 0 0 0 0 0 0 0 0 0 0 0 0 0 0 0 0 0 0 0 0 0 0 0 0 0 0 0 0 0 0 0 0 0 0 0 0 0 0 0 0 0 0 0
0 0 0 0 0 0 0 0 0 0 0 0 0 0 0 0 0 0 0 0 0 0 0 0 0 0 0 0 0 0 0 0 0 0 0 0 0 0 0 0 0 0 0 0 0 0 0 0 0
0 0 0 0 0 0 0 0 0 0 0 0 0 0 0 0 0 0 0 0 0 0 0 0 0 0 0 0 0 0 0 0 0 0 0 0 0 0 0 0 0 0 0 0 0 0 0 0 0
0 0 0 0 0 0 0 0 0 0 0 0 0 0 0 0 0 0 0 0 0 0 0 0 0 0 0 0 0 0 0 0 0 0 0 0 0 0 0 0 0 0 0 0 0 0 0 0 0
0 0 0 0 0 0 0 0 0 0 0 0 0 0 0 0 0 0 0 0 0 0 0 0 0 0 0 0 0 0 0 0 0 0 0 0 0 0 0 0 0 0 0 0 0 0 0 0 0
0 0 0 0 0 0 0 0 0 0 0 0 0 0 0 0 0 0 0 0 0 0 0 0 0 0 0 0 0 0 0 0 0 0 0 0 0 0 0 0 0 0 0 0 0 0 0 0 0
0 0 0 0 0 0 0 0 0 0 0 0 0 0 0 0 0 0 0 0 0 0 0 0 0 0 0 0 0 0 0 0 0 0 0 0 0 0 0 0 0 0 0 0 0 0 0 0 0
0 0 0 0 0 0 0 0 0 0 0 0 0 0 0 0 0 0 0 0 0 0 0 0 0 0 0 0 0 0 0 0 0 0 0 0 0 0 0 0 0 0 0 0 0 0 0 0 0
0 0 0 0 0 0 0 0 0 0 0 0 0 0 0 0 0 0 0 0 0 0 0 0 0 0 0 0 0 0 0 0 0 0 0 0 0 0 0 0 0 0 0 0 0 0 0 0 0
0 0 0 0 0 0 0 0 0 0 0 0 0 0 0 0 0 0 0 0 0 0 0 0 0 0 0 0 0 0 0 0 0 0 0 0 0 0 0 0 0 0 0 0 0 0 0 0 0
0 0 0 0 0 0 0 0 0 0 0 0 0 0 0 0 0 0 0 0 0 0 0 0 0 0 0 0 0 0 0 0 0 0 0 0 0 0 0 0 0 0 0 0 0 0 0 0 0
0 0 0 0 0 0 0 0 0 0 0 0 0 0 0 0 0 0 0 0 0 0 0 0 0 0 0 0 0 0 0 0 0 0 0 0 0 0 0 0 0 0 0 0 0 0 0 0 0
0 0 0 0 0 0 0 0 0 0 0 0 0 0 0 0 0 0 0 0 0 0 0 0 0 0 0 0 0 0 0 0 0 0 0 0 0 0 0 0 0 0 0 0 0 0 0 0 0
0 0 0 0 0 0 0 0 0 0 0 0 0 0 0 0 0 0 0 0 0 0 0 0 0 0 0 0 0 0 0 0 0 0 0 0 0 0 0 0 0 0 0 0 0 0 0 0 0
0 0 0 0 0 0 0 0 0 0 0 0 0 0 0 0 0 0 0 0 0 0 0 0 0 0 0 0 0 0 0 0 0 0 0 0 0 0 0 0 0 0 0 0 0 0 0 0 0
0 0 0 0 0 0 0 0 0 0 0 0 0 0 0 0 0 0 0 0 0 0 0 0 0 0 0 0 0 0 0 0 0 0 0 0 0 0 0 0 0 0 0 0 0 0 0 0 0
0 0 0 0 0 0 0 0 0 0 0 0 0 0 0 0 0 0 0 0 0 0 0 0 0 0 0 0 0 0 0 0 0 0 0 0 0 0 0 0 0 0 0 0 0 0 0 0 0
0 0 0 0 0 0 0 0 0 0 0 0 0 0 0 0 0 0 0 0 0 0 0 0 0 0 0 0 0 0 0 0 0 0 0 0 0 0 0 0 0 0 0 0 0 0 0 0 0
0 0 0 0 0 0 0 0 0 0 0 0 0 0 0 0 0 0 0 0 0 0 0 0 0 0 0 0 0 0 0 0 0 0 0 0 0 0 0 0 0 0 0 0 0 0 0 0 0
0 0 0 0 0 0 0 0 0 0 0 0 0 0 0 0 0 0 0 0 0 0 0 0 0 0 0 0 0 0 0 0 0 0 0 0 0 0 0 0 0 0 0 0 0 0 0 0 0
0 0 0 0 0 0 0 0 0 0 0 0 0 0 0 0 0 0 0 0 0 0 0 0 0 0 0 0 0 0 0 0 0 0 0 0 0 0 0 0 0 0 0 0 0 0 0 0 0
0 0 0 0 0 0 0 0 0 0 0 0 0 0 0 0 0 0 0 0 0 0 0 0 0 0 0 0 0 0 0 0 0 0 0 0 0 0 0 0 0 0 0 0 0 0 0 0 0
0 0 0 0 0 0 0 0 0 0 0 0 0 0 0 0 0 0 0 0 0 0 0 0 0 0 0 0 0 0 0 0 0 0 0 0 0 0 0 0 0 0 0 0 0 0 0 0 0
0 0 0 0 0 0 0 0 0 0 0 0 0 0 0 0 0 0 0 0 0 0 0 0 0 0 0 0 0 0 0 0 0 0 0 0 0 0 0 0 0 0 0 0 0 0 0 0 0
0 0 0 0 0 0 0 0 0 0 0 0 0 0 0 0 0 0 0 0 0 0 0 0 0 0 0 0 0 0 0 0 0 0 0 0 0 0 0 0 0 0 0 0 0 0 0 0 0
Wind_Speed
9 8 6 2 2 4 6 4 2 1 1 4 4 3 4 5 4 4 3 4 4 6 7 6 5 5 6 6 6 6 6 6 6 6 5 5 5 5 5 5 5 5 6 7 8 8 8 8 8
7 5 3 2 4 5 5 3 2 1 2 3 2 2 2 3 5 6 3 3 3 5 6 6 5 5 6 6 6 6 6 6 5 5 5 5 5 5 5 5 5 5 6 7 7 7 7 7 7
7 6 3 3 4 5 2 1 2 3 3 2 1 2 2 3 4 4 3 2 3 5 5 6 6 6 6 6 6 5 5 5 5 4 4 4 5 5 5 4 4 5 6 6 6 7 6 6 7
4 3 3 4 8 6 4 2 2 2 2 1 1 1 3 5 4 4 4 3 3 4 5 6 6 6 6 6 6 5 5 5 5 4 4 3 4 4 4 5 5 5 5 5 5 6 6 6 6
4 3 5 7 9 6 2 1 1 2 1 1 1 1 2 3 5 6 4 3 3 4 5 6 6 5 5 5 6 5 5 5 4 4 4 3 4 4 4 5 5 6 5 5 5 5 5 5 5
3 4 6 7 7 5 2 1 2 2 2 1 0 1 1 4 4 5 4 4 4 4 4 5 5 5 4 5 5 5 4 4 4 4 4 4 4 4 4 5 5 5 5 4 4 4 4 4 4
4 4 7 8 6 4 2 2 2 2 2 2 2 1 3 3 4 4 4 3 3 4 4 4 3 3 4 4 5 5 4 4 4 4 4 4 4 4 4 4 4 4 4 4 4 4 4 4 3
3 4 7 7 7 4 1 0 0 2 2 2 2 1 1 3 4 4 3 3 3 3 3 3 3 2 2 3 4 5 5 4 4 4 4 4 4 3 4 3 3 4 4 4 3 3 3 3 3
4 5 7 6 4 2 1 1 1 1 0 0 1 1 3 6 4 3 2 2 2 2 2 2 2 2 2 2 4 4 4 4 4 4 4 3 1 2 2 2 3 4 4 3 3 3 2 2 2
3 5 7 4 3 2 2 3 2 1 2 2 1 1 3 4 3 3 2 2 2 2 2 2 1 2 2 2 3 2 2 2 2 2 2 1 1 2 2 3 4 4 3 3 3 2 1 1 0
4 6 5 4 2 2 3 3 3 5 4 2 2 2 2 2 3 2 3 2 2 2 1 1 1 2 1 2 2 2 1 1 1 1 2 2 1 1 2 1 2 2 2 1 2 1 1 0 0
5 5 5 4 2 2 4 3 4 5 5 2 2 1 2 3 3 3 3 2 2 2 2 1 1 1 1 2 2 2 2 1 1 1 2 1 1 1 1 1 1 1 1 1 1 0 1 1 1
8 6 4 3 2 3 4 5 5 6 5 3 1 1 2 3 3 2 2 1 1 2 2 2 1 1 1 2 1 2 2 2 1 1 1 2 1 1 1 1 1 1 1 1 1 1 0 0 1
3 4 6 6 5 4 5 6 6 6 4 3 2 2 3 2 2 2 2 2 1 1 2 2 2 1 1 1 1 1 2 2 2 1 1 1 1 1 1 1 1 1 1 1 1 1 1 0 0
3 5 7 7 6 4 3 8 9 6 3 4 4 3 3 2 1 1 1 1 1 1 1 2 2 1 1 1 1 1 1 2 2 1 1 1 1 2 1 1 1 1 0 1 0 0 0 0 0
4 5 6 5 5 4 4 9 4 3 4 5 4 3 2 1 1 1 1 1 1 1 2 2 2 1 1 1 1 0 1 1 2 2 2 2 1 2 1 1 1 1 1 1 0 0 1 0 0
6 6 7 4 5 5 6 8 2 1 3 4 4 3 2 1 1 1 2 1 2 2 2 2 2 1 1 0 1 1 1 1 1 1 1 1 2 2 1 1 1 1 1 1 0 1 0 0 1
5 6 6 6 4 5 7 9 5 3 3 4 3 2 1 1 0 2 2 2 2 1 2 2 2 1 1 1 0 1 1 1 1 1 1 2 2 2 1 1 1 1 1 1 0 0 1 0 1
7 7 8 6 2 3 7 10 8 5 4 3 3 2 1 0 1 2 2 2 2 1 1 2 2 1 1 1 0 0 1 1 0 0 1 1 2 2 2 1 1 1 1 1 1 0 0 1 1
8 9 10 6 2 4 6 10 8 6 5 4 3 2 1 0 1 1 2 2 1 0 1 1 2 1 1 1 0 0 1 1 1 0 1 1 2 2 1 2 2 2 1 1 1 1 0 0 0
9 9 8 6 4 5 6 9 6 4 4 2 2 2 1 1 0 1 1 1 1 1 1 1 1 1 1 1 1 1 0 0 0 0 0 1 1 2 1 2 1 1 1 2 2 1 1 1 1
9 5 6 6 5 4 4 6 5 4 4 3 2 2 2 1 0 1 1 1 1 1 0 1 1 1 1 2 1 1 1 1 1 1 1 1 1 1 1 1 1 2 1 2 2 1 1 1 1
5 3 5 6 5 5 5 5 6 2 3 3 3 2 1 1 1 1 1 1 1 2 1 1 2 1 1 1 1 1 1 0 0 0 1 1 1 1 2 1 1 2 2 2 2 2 1 1 1
4 3 5 4 3 6 8 7 6 3 4 3 3 2 2 1 1 1 2 2 2 2 2 1 1 1 1 1 1 1 1 1 1 1 1 1 1 1 1 1 2 2 2 2 2 2 3 2 1
3 2 1 2 4 7 5 6 6 2 0 2 3 2 2 2 1 2 2 2 2 2 2 1 1 1 1 1 1 1 1 2 2 2 2 1 1 1 1 1 2 2 2 2 2 2 2 2 2
5 5 4 4 4 3 3 6 4 2 2 3 3 3 3 2 1 2 2 1 1 1 1 1 1 1 1 1 1 1 1 1 1 1 1 2 2 1 2 2 2 2 2 2 2 2 2 2 3
4 5 4 3 3 4 5 3 2 2 2 2 3 3 2 1 1 1 2 2 1 1 1 1 1 1 1 1 1 1 1 1 1 1 1 1 1 1 1 2 2 2 2 3 3 3 3 2 3
3 2 1 3 3 6 5 4 3 3 3 1 1 0 0 1 2 2 2 2 2 1 2 2 2 1 1 1 1 1 1 1 1 1 1 2 1 1 2 2 3 3 3 3 3 3 3 3 3
2 2 3 3 3 3 4 3 0 2 2 2 2 1 1 1 1 1 1 2 2 2 2 2 2 2 2 2 2 2 2 2 1 1 1 2 1 1 2 2 3 3 3 3 3 4 4 4 4
3 4 4 3 4 3 4 4 3 4 3 2 1 1 1 2 1 1 1 1 2 2 2 2 2 2 2 2 2 2 2 2 2 2 2 2 2 2 2 2 3 4 4 4 4 4 4 5 5
Wind_Direction
294 268 254 252 241 235 241 239 246 263 19 44 27 8 10 16 22 87 110 60 68 106 123 131 111 112 107 103 98 93 97 100 103 102 96 97 103 107 109 106 99 93 90 89 91 87 89 88 86
287 275 262 241 242 240 240 221 226 46 74 68 37 357 25 60 71 94 93 54 74 107 121 126 114 114 111 107 102 100 96 96 96 100 97 93 99 103 106 105 103 99 96 91 88 86 88 90 89
272 259 257 237 238 247 272 73 99 72 83 88 75 22 12 45 69 75 71 71 86 102 111 117 114 118 117 112 106 102 99 96 94 93 98 94 99 107 104 103 106 103 100 96 90 84 86 91 90
259 229 236 243 243 249 270 315 41 82 100 101 109 75 86 50 40 67 82 80 88 96 107 114 113 116 118 115 111 106 102 96 93 85 83 91 99 109 107 101 101 105 104 99 97 92 87 89 92
239 240 230 236 243 242 264 336 337 278 193 132 150 158 85 63 77 90 89 83 79 89 103 116 112 113 113 115 113 108 106 101 93 84 76 83 99 102 113 108 104 99 104 106 105 101 95 88 86
240 235 237 239 241 225 219 277 290 296 310 350 249 206 104 95 86 91 89 83 80 83 95 114 111 113 117 119 119 110 101 96 89 86 79 77 83 97 102 107 107 104 98 109 115 111 105 94 84
252 255 252 258 260 245 205 172 237 265 279 315 318 235 129 99 83 95 97 93 83 83 88 101 118 120 121 122 125 120 108 96 90 81 78 71 73 78 78 85 101 105 105 99 107 114 111 109 94
270 269 252 250 259 264 334 63 273 283 280 336 338 292 112 102 90 91 94 95 89 87 92 99 105 105 131 139 130 116 107 101 95 84 76 72 70 75 76 69 81 97 96 97 92 108 115 111 98
269 249 250 253 259 274 354 291 302 341 310 329 344 335 58 104 106 102 99 92 93 94 87 94 108 102 117 142 129 116 109 105 100 97 93 90 85 94 83 83 84 91 86 85 83 77 92 97 88
225 240 247 277 305 316 337 315 310 259 243 241 267 277 108 124 134 144 146 149 138 132 115 100 125 112 114 140 130 134 135 123 117 113 119 112 75 77 78 98 98 87 84 87 78 54 46 86 141
222 239 256 280 326 320 299 299 298 277 267 261 250 228 161 152 157 175 179 181 179 147 114 91 128 121 127 133 130 126 123 122 128 111 103 92 83 80 83 91 102 102 102 91 76 61 6 318 312
239 251 266 277 308 302 288 288 279 264 265 308 313 175 168 186 196 192 196 198 173 147 144 117 85 111 129 126 124 129 121 122 121 113 106 106 99 88 102 106 110 117 112 105 85 73 339 319 347
238 252 262 273 277 272 286 274 271 264 272 280 293 256 215 209 206 192 186 191 171 148 142 144 130 121 143 140 131 127 129 128 120 111 114 106 111 113 106 127 132 133 117 124 131 147 103 310 322
260 262 261 258 250 251 259 271 266 260 261 260 246 239 244 229 216 196 187 193 175 159 155 146 144 142 139 144 149 149 141 136 135 142 150 133 123 119 117 119 127 113 125 133 154 169 152 199 235
257 264 263 240 232 229 260 270 244 251 243 252 252 242 234 233 206 201 186 166 133 111 124 133 142 134 151 152 160 153 150 151 150 153 152 150 137 133 141 143 138 117 90 89 73 72 83 79 215
236 241 249 222 210 197 209 260 251 218 222 241 248 248 237 240 201 153 134 126 105 98 102 106 108 121 125 135 168 163 162 148 151 150 156 161 156 137 140 137 151 138 94 73 45 28 68 353 298
221 239 244 227 193 191 207 256 266 208 217 238 241 237 214 228 32 33 48 80 100 110 114 113 110 112 90 114 182 169 146 143 143 140 154 170 164 143 142 158 151 146 118 103 31 9 41 330 317
231 239 248 240 190 195 221 249 257 253 238 249 254 238 204 207 68 47 50 54 70 98 120 122 120 115 102 91 109 147 143 150 147 157 157 161 163 154 155 149 157 143 125 132 127 341 337 283 298
273 272 269 265 207 224 241 255 259 244 232 235 247 247 217 148 75 67 62 65 52 76 104 132 134 128 116 117 123 161 181 181 183 158 145 170 164 164 165 148 162 152 157 174 161 137 358 329 359
250 261 268 274 234 245 261 267 262 243 225 217 221 231 206 69 40 59 61 65 41 58 144 142 144 142 137 115 132 219 175 219 193 153 160 201 163 159 167 166 175 168 157 166 166 137 150 291 34
248 247 258 266 280 254 272 276 238 222 215 213 198 196 189 174 290 52 57 70 46 353 169 154 147 138 133 104 94 64 76 50 97 201 230 259 186 157 168 175 162 159 162 179 186 179 183 217 272
254 252 257 261 263 253 226 275 261 215 202 201 210 205 206 179 170 78 62 38 26 346 125 132 143 137 143 136 144 158 184 205 257 264 270 270 199 180 173 175 169 173 179 186 199 198 241 176 221
255 283 261 252 252 262 230 244 269 226 226 211 198 192 178 137 123 88 86 56 27 24 54 138 135 134 135 158 171 191 216 239 256 268 234 243 223 194 179 184 189 191 193 195 191 197 223 220 211
256 263 258 249 240 247 226 216 266 230 228 210 184 158 140 113 87 81 79 73 43 37 31 37 132 143 147 167 175 188 206 223 205 224 228 234 221 206 197 211 204 203 201 205 203 202 214 231 239
237 222 257 238 223 240 205 212 246 240 49 144 153 146 109 97 82 72 68 72 50 39 31 27 47 35 162 180 189 215 231 220 221 230 228 238 226 215 224 243 231 221 218 214 208 209 221 221 228
225 216 209 230 245 264 212 221 234 151 87 79 92 99 93 84 64 60 64 69 58 40 38 30 17 8 8 217 215 220 238 235 245 253 248 240 235 230 223 224 231 237 231 224 213 215 227 225 230
228 225 244 262 275 268 239 216 205 109 91 85 73 68 77 76 51 49 49 49 40 36 42 34 21 10 5 342 298 234 226 250 257 257 254 247 249 248 236 236 229 226 233 235 218 223 224 224 231
275 271 227 213 239 254 250 228 233 184 210 183 143 133 320 50 51 44 38 30 28 34 35 35 25 22 16 2 341 321 274 250 255 258 270 271 251 240 239 251 247 237 234 236 232 230 226 225 234
209 226 237 235 230 232 261 256 19 135 158 176 191 197 188 116 72 51 34 25 29 36 36 25 28 21 10 360 347 335 317 299 277 272 268 271 260 241 240 249 253 245 240 237 236 238 227 228 235
206 220 204 213 246 243 261 263 48 72 75 87 115 97 78 79 55 43 42 36 34 36 28 20 16 13 0 354 351 343 339 333 311 290 278 273 256 248 250 253 256 252 247 241 237 241 239 233 231